User: anonymous   Login
Location: Owatonna
(44.0840°N, 93.2260°W)
Time: 22:50:43
(UTC-06:00)
Language:

Tiangong 1 - Orbit

View from above orbital plane
View from above orbital plane
View from above satellite
View from above satellite

Ground track
Ground track

The orbit data is extracted from the following two-line orbital elements,

1 37820U 11053A   15029.73794243  .00040899  00000-0  35761-3 0  7966
2 37820 042.7703 026.6997 0013781 257.8621 268.2903 15.68073320191618
Epoch (UTC): 29 January 2015 17:42:38
Eccentricity: 0.0013781
inclination: 42.7703°
perigee height: 355 km
apogee height: 374 km
right ascension of ascending node: 26.6997°
argument of perigee: 257.8621°
revolutions per day: 15.68073320
mean anomaly at epoch: 268.2903°
orbit number at epoch: 19161

The dashed part of the orbit path shows where the satellite is in the earth's shadow,  

DLR